| time (UTC) | temp F | wind direction | speed MPH | gust MPH | rain 1hr in | rain 24hr in | rain mn in | humidity % | barometer mb |
| 20260509000055 | 57 | 138 | 0.0 | 5.0 | 0.00 | 0.00 | 0.00 | ||
| 20260508233035 | 57 | 250 | 2.0 | 6.0 | 0.00 | 0.00 | 0.00 | ||
| 20260508230107 | 58 | 255 | 2.0 | 4.0 | 0.00 | 0.00 | 0.00 | ||
| 20260508223047 | 57 | 207 | 2.0 | 7.0 | 0.00 | 0.00 | 0.00 | ||
| 20260508220058 | 59 | 262 | 1.0 | 7.0 | 0.00 | 0.00 | 0.00 | ||
| 20260508203033 | 59 | 305 | 0.0 | 8.0 | 0.00 | 0.00 | 0.00 | ||
| 20260508200104 | 59 | 273 | 2.0 | 5.0 | 0.00 | 0.00 | 0.00 | ||
| 20260508193040 | 57 | 243 | 1.0 | 3.0 | 0.00 | 0.00 | 0.00 | ||
| 20260508190050 | 58 | 233 | 0.0 | 5.0 | 0.00 | 0.00 | 0.00 | ||
| 20260508180100 | 56 | 260 | 0.0 | 4.0 | 0.00 | 0.00 | 0.00 | ||
| 20260508173040 | 55 | 218 | 1.0 | 5.0 | 0.00 | 0.00 | 0.00 | ||
| 20260508170050 | 53 | 250 | 2.0 | 4.0 | 0.00 | 0.00 | 0.00 | ||
| 20260508163051 | 54 | 297 | 0.0 | 3.0 | 0.00 | 0.00 | 0.00 | ||
| 20260508153047 | 53 | 287 | 1.0 | 3.0 | 0.00 | 0.00 | 0.00 | ||
| 20260508150059 | 51 | 104 | 0.0 | 2.0 | 0.00 | 0.00 | 0.00 | ||
| 20260508143038 | 51 | 199 | 0.0 | 2.0 | 0.00 | 0.00 | 0.00 | ||
| 20260508133039 | 50 | 261 | 1.0 | 3.0 | 0.00 | 0.00 | 0.00 | ||
| 20260508130107 | 50 | 246 | 0.0 | 1.0 | 0.00 | 0.00 | 0.00 | ||
| 20260508123046 | 50 | 238 | 0.0 | 4.0 | 0.00 | 0.00 | 0.00 | ||
| 20260508120056 | 50 | 243 | 0.0 | 2.0 | 0.00 | 0.00 | 0.00 | ||
| 20260508113040 | 49 | 256 | 1.0 | 3.0 | 0.00 | 0.00 | 0.00 | ||
| 20260508110110 | 49 | 135 | 0.0 | 1.0 | 0.00 | 0.00 | 0.00 | ||
| 20260508103051 | 48 | 135 | 0.0 | 1.0 | 0.00 | 0.00 | 0.00 | ||
| 20260508100059 | 48 | 135 | 0.0 | 1.0 | 0.00 | 0.00 | 0.00 | ||
| 20260508093038 | 48 | 138 | 0.0 | 0.0 | 0.00 | 0.00 | 0.00 | ||
| 20260508083047 | 48 | 171 | 0.0 | 0.0 | 0.00 | 0.00 | 0.00 | ||
| 20260508080056 | 48 | 171 | 0.0 | 0.0 | 0.00 | 0.00 | 0.00 | ||
| 20260508073038 | 48 | 171 | 0.0 | 0.0 | 0.00 | 0.00 | 0.00 | ||
| 20260508070107 | 48 | 171 | 0.0 | 0.0 | 0.00 | 0.00 | 0.00 | ||
| 20260508063046 | 48 | 136 | 0.0 | 0.0 | 0.00 | 0.00 | 0.00 | ||
| 20260508060057 | 49 | 136 | 0.0 | 1.0 | 0.00 | 0.00 | 0.00 | ||
| 20260508053038 | 49 | 154 | 0.0 | 0.0 | 0.00 | 0.00 | 0.00 | ||
| 20260508050106 | 49 | 174 | 0.0 | 1.0 | 0.00 | 0.00 | 0.00 | ||
| 20260508043046 | 50 | 231 | 0.0 | 0.0 | 0.00 | 0.00 | 0.00 | ||
| 20260508033032 | 52 | 222 | 0.0 | 3.0 | 0.00 | 0.00 | 0.00 | ||
| 20260508030058 | 53 | 240 | 0.0 | 2.0 | 0.00 | 0.00 | 0.00 | ||
| 20260508023039 | 54 | 213 | 0.0 | 5.0 | 0.00 | 0.00 | 0.00 | ||
| 20260508020110 | 55 | 279 | 1.0 | 5.0 | 0.00 | 0.00 | 0.00 | ||
| 20260508010100 | 57 | 272 | 2.0 | 8.0 | 0.00 | 0.00 | 0.00 | ||
| 20260508003042 | 58 | 250 | 2.0 | 7.0 | 0.00 | 0.00 | 0.00 |